Regional Weather Roundup
Issued by NWS

Home | Current Version | Previous Version | Text Only | Print | Product List | Glossary On
Versions: 1 2 3 4 5 6 7 8 9 10 11 12 13 14 15 16 17 18 19 20 21 22 23 24 25 26 27 28 29 30 31 32 33 34 35 36 37 38 39 40 41 42 43 44 45 46 47 48 49 50
000
ASUS43 KIND 020109
RWRIN

WEATHER ROUNDUP FOR INDIANA
NATIONAL WEATHER SERVICE INDIANAPOLIS IN
800 PM EST SUN FEB 01 2015

NOTE: "FAIR" INDICATES FEW OR NO CLOUDS BELOW 12,000 FEET WITH NO
SIGNIFICANT WEATHER AND/OR OBSTRUCTIONS TO VISIBILITY.

* - STATION DOES NOT REPORT WEATHER SUCH AS PRECIPITATION OR FOG.

+ - STATION NOT QUALITY CONTROLLED BY THE NATIONAL WEATHER SERVICE.
    USE DATA WITH CAUTION...ESPECIALLY DEWPOINT AND RELATIVE
    HUMIDITY OBSERVATIONS.

INZ001>003-010>013-019-020-020200-
NORTHWEST INDIANA

CITY           SKY/WX    TMP DP  RH WIND       PRES   REMARKS
GARY /AIRPORT/ LGT SNOW  23  18  80 NE23G39   29.77R VSB 3/4 WCI   7
KNOX *+        CLOUDY    21  14  73 NE14G23   29.67R WCI   8
LA PORTE +     LGT SNOW  21  17  86 NE10      29.70R WCI  10
MICHIGAN CITY+ LGT SNOW  19  14  79 NE13G18   29.73R WCI   7
MONTICELLO +   LGT SNOW  27  26  95 NE12      29.59S WCI  17
RENSSELAER +   LGT SNOW  27  27 100 N14       29.66R WCI  15
VALPARAISO     FLURRIES  20  16  84 N10       29.70R WCI   9

$$

LMZ046-743>745-020200-
SOUTHERN LAKE MICHIGAN

STATION/POSITION TIME  TEMP WIND        PRES
                       AIR  DIR/SP/G
                 (UTC) (F)  (DEG/KT/KT) (MB)
MICHIGAN CITY    0100   20   30/ 30/ 37   N/A

$$

INZ004-005-014>016-021>024-020200-
NORTH CENTRAL INDIANA

CITY           SKY/WX    TMP DP  RH WIND       PRES   REMARKS
GOSHEN         LGT SNOW  18  14  84 NE20G28   29.65F FOG     WCI   2
LOGANSPORT +   LGT SNOW  28  27  93 NE9       29.60S WCI  20
PERU/GRISSOM   FRZ RAIN  28  26  92 NE18      29.57S FOG     WCI  15
ROCHESTER +    LGT SNOW  28  27  93 NE15      29.62S WCI  17
SOUTH BEND     LGT SNOW  18  13  80 NE14G22   29.69S WCI   4
WARSAW +       LGT SNOW  23  21  93 NE14G25   29.62F WCI  11

$$

INZ006>009-017-018-025>027-020200-
NORTHEAST INDIANA

CITY           SKY/WX    TMP DP  RH WIND       PRES   REMARKS
ANGOLA *+      CLOUDY    19  18  93 NE12      29.65F WCI   7
AUBURN +       LGT SNOW  23  19  86 NE16G24   29.63F WCI  10
FORT WAYNE     LGT SNOW  25  22  88 NE17      29.60F BLWGSNOWWCI  12
HUNTINGTON +   LGT SNOW  26  22  84 NE8G17    29.58F WCI  17

$$

INZ028-029-035-036-043>045-051>053-020200-
WEST CENTRAL INDIANA

CITY           SKY/WX    TMP DP  RH WIND       PRES   REMARKS
CRAWFORDSVL +  CLOUDY    32  31  96 W9        29.57R WCI  24
GREENCASTLE +  CLOUDY    34  32  93 W5        29.58S WCI  30
LAFAYETTE      LGT SNOW  32  31  96 N6        29.58S FOG     WCI  26
TERRE HAUTE    CLOUDY    36  33  89 W12       29.61R

$$

INZ030>032-037>040-046>048-054>057-064-065-020200-
CENTRAL INDIANA

CITY           SKY/WX    TMP DP  RH WIND       PRES   REMARKS
CP ATTERBURY + CLOUDY    43  39  87 W8        29.57S
COLUMBUS       CLOUDY    41  39  93 W8        29.56F
FRANKFORT +    DRZL/FOG  33  33 100 W3        29.58S VSB 1
GREENWOOD *+   CLOUDY    37  36  93 W9        29.57S
INDIANAPOLIS   CLOUDY    32  32 100 W10       29.56S WCI  24
-EAGLE CREEK   CLOUDY    35  34  96 W9        29.56R WCI  28
KOKOMO *+      CLOUDY    30  28  93 NE12G20   29.56F WCI  21
MARION +       CLOUDY    31  31 100 NE15      29.55F FOG     WCI  21
MT COMFORT *+  CLOUDY    36 N/A N/A W5        29.56S VSB 3/4
SHELBYVILLE    CLOUDY    41  38  89 W10       29.55S
ZIONSVILLE +   CLOUDY    35  33  91 W6        29.56S FOG     WCI  30

$$

INZ033-034-041-042-049-050-058-059-020200-
EAST CENTRAL INDIANA

CITY           SKY/WX    TMP DP  RH WIND       PRES   REMARKS
MUNCIE         MIX PCPN  33  32  96 E3        29.54F FOG

$$

INZ060-061-067>069-081>083-085>088-020200-
SOUTHWEST INDIANA

CITY           SKY/WX    TMP DP  RH WIND       PRES   REMARKS
EVANSVILLE     CLOUDY    44  40  85 NW13G21   29.66R
HUNTINGBURG *+ CLOUDY    45  41  87 W13G22    29.64R
WASHINGTON +   CLOUDY    40  37  87 W10G16    29.63R

$$

INZ062-063-066-070>080-084-089>092-020200-
SOUTH CENTRAL AND SOUTHEAST INDIANA

CITY           SKY/WX    TMP DP  RH WIND       PRES   REMARKS
BLOOMINGTON    CLOUDY    39  37  92 W10       29.59R
NORTH VERNON + CLOUDY    45  45 100 SW12G17   29.56  FOG
SEYMOUR +      CLOUDY    45  45 100 W14       29.57S

$$



USA.gov is the U.S. government's official web portal to all federal, state and local government web resources and services.